Вернуться в каталог

CZ-4 DEB

АктивенSSO
NORAD 20876·DEBRIS·🇨🇳 China

Запущен Sep 3, 1990 с Taiyuan Satellite Launch Center

Loading…

Ближайшие Пролёты (ближайшие 24 часа)

TLE

СвежийSource: Space-Track

Эпоха: Sep 14, 2026, 11:38 UTC

1 20876U 90081AL  26257.48491367  .00001311  00000-0  42530-3 0  9998
2 20876  98.4639 260.5386 0012756 247.1862 266.0668 14.40532494870055

Отслеживайте CZ-4 DEB в реальном времени с AllMySat

Download on the App Store